Zurück zum Katalog

PAZ

AktivWissenschaftSSO
NORAD 43215·PAYLOAD·🇪🇸 Spain

Gestartet Feb 22, 2018 von Vandenberg Space Force Base

Loading…

Nächste Überflüge (nächste 24 Stunden)

TLE

AktuellSource: CelesTrak SupGP

Epoche: Sep 14, 2026, 00:00 UTC

1 43215C 18020A   26257.00000000  .00000905  00000+0  43193-4 0  2572
2 43215  97.4469 263.1301 0001719  97.0141 103.4099 15.19152986    16

Verfolge PAZ in Echtzeit mit AllMySat

Download on the App Store